Location: Most
(50.5133°N, 13.6207°E)
Time: 11:17:17
(UTC+01:00)

Oscar 11 - Pass Details

Date: 04 December 2022
Orbit: 611 x 621 km, 97.6° (Epoch: 28 January)

Event Time Altitude Azimuth Distance (km) Brightness Sun altitude
Rises 04:20:22 0° 19° (NNE) 2,891 10.8 -32.0°
Reaches altitude 10° 04:22:40 10° 27° (NNE) 1,980 9.9 -31.6°
Enters shadow 04:24:26 22° 41° (NE) 1,352 9.1 -31.3°
